Погода в Лаппеэнранта

Финляндия     61°03′28″N   28°11′16″E
темп.,
°C
ветер,
м/с
пор.,
м/с
влажн.,
%
обл.,
%
осадки,
мм/ч
давл.,
гПа
погр.,
м
20 апреля, вт
вт2000:00+3всв27590 0.0 1028135
03:00+2всв277326 0.0 1027127
06:00+1в2684100 0.0 1025126
09:00+5в3566100 0.0 1025253
12:00+9вюв464597 0.0 10231200
15:00+10в45396 0.0 10211621
18:00+9вюв45395 0.0 10191606
21:00+5в395771 0.0 1018272
21 апреля, ср
ср2100:00+3в266878 0.0 1016112
03:00+2вюв227961 0.0 101437
06:00+2вюв228687 0.0 101235
09:00+5вюв357892 0.0 1011578
12:00+5всв2383100 0.2 1008554
15:00+5св228197 0.3 1007546
18:00+5св237797 0.0 1005541
21:00+4ссв118769 0.0 100418
22 апреля, чт
чт2200:00+2сз019462 0.0 100411
03:00+1зюз119478 0.0 100415
06:00+2ююз119399 0.0 100432
09:00+5ю237524 0.0 1005320
12:00+9ю335341 0.0 10061144
15:00+11ю344770 0.0 10071254
18:00+11ю335051 0.0 1007937
21:00+7ююв256897 0.0 1007112
23 апреля, пт
пт2300:00+6юз3792100 1.6 1007587
03:00+5ююз2696100 4.1 1007272
06:00+3юз249498 0.0 1007114
09:00+6ююз1276100 0.0 1006382
12:00+5ю2380100 0.9 1006609
15:00+6ю3474100 1.6 1007598
18:00+6ю4471100 0.0 1007799
21:00+2ююв249499 0.0 1007110
24 апреля, сб
сб2400:00+2юв1193100 0.1 100747
03:00+2всв1297100 0.6 100556
06:00+2юв129782 0.3 1005103
09:00+3зюз1292100 0.4 1005391
12:00+2зюз2397100 0.3 1006275
15:00+5ююз2373100 0.7 10071077
18:00+5ююз236888 0.3 1007792
21:00+1ю23856 0.3 100877